Weather History for Fitchburg, MA

Change the Weather History Date:

Wednesday, March 13, 2013

  Actual Average (KORH) Record (KORH)
Temperature  
Mean Temperature 39 °F 34 °F  
Max Temperature 50 °F 42 °F 70 °F (1946)
Min Temperature 30 °F 25 °F 4 °F (1941)
Degree Days  
Heating Degree Days 26 31  
Month to date heating degree days 432  
Since 1 July heating degree days 5269  
Cooling Degree Days 0 0  
Month to date cooling degree days 0  
Year to date cooling degree days 0  
Moisture  
Dew Point 28 °F    
Average Humidity 62    
Maximum Humidity 87    
Minimum Humidity 31    
Precipitation  
Precipitation 0.00 in 0.12 in 2.09 in (1953)
Month to date precipitation 1.64  
Year to date precipitation 8.36  
Sea Level Pressure  
Sea Level Pressure 29.77 in    
Wind  
Wind Speed 8 mph (WNW)    
Max Wind Speed 18 mph    
Max Gust Speed 24 mph    
Visibility 10 miles    
Events      
T = Trace of Precipitation, MM = Missing Value Source: NWS Daily Summary

Daily Weather History Graph

Daily Weather History Graph

Search for Another Location

Airport:

Trip Planner

Search our weather history database for the weather conditions in past years. The results will help you decide how hot, cold, wet, or windy it might be!

Date:

Astronomy

Mar. 13, 2013 Rise Set
Actual Time 7:02 AM EDT 6:51 PM EDT
Civil Twilight 6:34 AM EDT 7:19 PM EDT
Nautical Twilight 6:01 AM EDT 7:52 PM EDT
Astronomical Twilight 5:28 AM EDT 8:25 PM EDT
Moon 7:36 AM EDT (3/13) 9:08 PM EDT (3/13)
Length of Visible Light 12h 45m
Length of Day
11h 49m
Waxing Crescent, 4% of the Moon is Illuminated
Mar 13
Waxing Crescent
Mar 19
First Quarter
Mar 27
Full
Apr 3
Last Quarter
Apr 10
New

Hourly Weather History & Observations

Time (EDT) Temp. Windchill Dew Point Humidity Pressure Visibility Wind Dir Wind Speed Gust Speed Precip Events Conditions
12:47 AM 44.6 °F 40.7 °F 39.2 °F 81% 29.77 in 10.0 mi Variable 6.9 mph - N/A   Overcast
12:52 AM 44.1 °F 40.8 °F 39.0 °F 82% 29.78 in 10.0 mi Variable 5.8 mph - N/A   Overcast
1:52 AM 42.1 °F 37.7 °F 37.0 °F 82% 29.78 in 10.0 mi WNW 6.9 mph - N/A   Overcast
2:09 AM 41.0 °F 35.8 °F 37.4 °F 87% 29.77 in 10.0 mi WNW 8.1 mph - N/A   Scattered Clouds
2:52 AM 39.9 °F 33.9 °F 35.1 °F 83% 29.78 in 10.0 mi WNW 9.2 mph - N/A   Clear
4:05 AM 39.2 °F 35.9 °F 33.8 °F 81% 29.77 in 10.0 mi NNW 4.6 mph - N/A   Mostly Cloudy
4:30 AM 39.2 °F 33.0 °F 33.8 °F 81% 29.76 in 10.0 mi NNW 9.2 mph - N/A   Scattered Clouds
4:52 AM 39.0 °F 34.8 °F 32.0 °F 76% 29.78 in 10.0 mi NNW 5.8 mph - N/A   Mostly Cloudy
5:18 AM 39.2 °F 33.6 °F 32.0 °F 75% 29.78 in 10.0 mi WNW 8.1 mph - N/A   Scattered Clouds
5:52 AM 37.9 °F 32.1 °F 32.0 °F 79% 29.80 in 10.0 mi NW 8.1 mph - N/A   Clear
6:52 AM 37.0 °F 30.4 °F 30.0 °F 76% 29.78 in 10.0 mi NW 9.2 mph - N/A   Clear
7:52 AM 37.9 °F 32.1 °F 28.9 °F 70% 29.78 in 10.0 mi NW 8.1 mph - N/A   Clear
8:52 AM 41.0 °F 34.7 °F 30.0 °F 65% 29.78 in 10.0 mi WNW 10.4 mph - N/A   Clear
9:52 AM 43.0 °F 36.0 °F 30.0 °F 60% 29.77 in 10.0 mi WNW 13.8 mph 23.0 mph N/A   Clear
10:52 AM 45.0 °F 39.3 °F 30.9 °F 58% 29.77 in 10.0 mi NW 11.5 mph 19.6 mph N/A   Clear
11:52 AM 46.9 °F - 28.9 °F 50% 29.77 in 10.0 mi WNW 18.4 mph 23.0 mph N/A   Clear
12:52 PM 46.9 °F - 28.0 °F 48% 29.76 in 10.0 mi West 12.7 mph 20.7 mph N/A   Clear
1:52 PM 48.0 °F - 26.1 °F 42% 29.75 in 10.0 mi WNW 13.8 mph 21.9 mph N/A   Scattered Clouds
2:52 PM 48.9 °F - 23.0 °F 36% 29.73 in 10.0 mi West 13.8 mph 23.0 mph N/A   Clear
3:52 PM 48.9 °F - 19.0 °F 31% 29.73 in 10.0 mi WNW 10.4 mph 24.2 mph N/A   Clear
4:52 PM 48.0 °F - 19.0 °F 32% 29.73 in 10.0 mi West 10.4 mph 21.9 mph N/A   Clear
5:52 PM 46.0 °F 39.6 °F 19.0 °F 34% 29.74 in 10.0 mi WNW 15.0 mph 23.0 mph N/A   Clear
6:52 PM 43.0 °F 36.8 °F 19.0 °F 38% 29.76 in 10.0 mi WNW 11.5 mph - N/A   Clear
7:52 PM 39.9 °F 36.7 °F 18.0 °F 41% 29.78 in 10.0 mi WNW 4.6 mph - N/A   Clear
8:52 PM 37.0 °F - 19.0 °F 48% 29.79 in 10.0 mi Calm Calm - N/A   Clear
9:52 PM 33.1 °F - 21.9 °F 64% 29.80 in 10.0 mi Calm Calm - N/A   Clear
10:52 PM 30.9 °F - 24.1 °F 76% 29.80 in 10.0 mi Calm Calm - N/A   Partly Cloudy
11:52 PM 32.0 °F - 21.9 °F 66% 29.79 in 10.0 mi Calm Calm - N/A   Clear